Starlink 1752

operational
NORAD ID: 46338 Int'l Des: 2020-062 Owner: SPXS Country: US Constellation: starlink
LEOCIRCULARSTARLINK_TYPE

Über Starlink 1752

Beschreibung wird geladen...

Live-Position

3D-Globus wird geladen...

Nächste Überflüge

Höhenverlauf

Altitude vs Time

uPlot chart will show altitude changes over time

Zweizeiliger Elementsatz

1 46338U 20062P 25350.35928202 .00115145 00000-0 20864-2 0 9999
2 46338 53.0516 18.0505 0010773 14.7799 345.3521 15.48719945291929
Epoch: 16. Dez. 2025 • Age: 13 hours

Aktueller Status

Höhe 421.5 km
Geschwindigkeit 7.67 km/s
Subsatellitenpunkt 49.28°N, 30.31°E
Startdatum 3. Sept. 2020
Alter 5.2 years
Typ internet

Technische Details

Klassifizierung Payload
Masse 260.00 kg
Trockenmasse 248.00 kg
Gesamtmasse 260.00 kg
Länge 0.20 m
Durchmesser 2.80 m
Spannweite 9.00 m
Form Box + pan
Hersteller SPXS
Bus-Typ Starlink
Phasenstatus In Orbit
Besitzer/Staat SPXS/US

Große Konstellationen

Loading constellations...